This is the latest recevied weather packets stored in our database for station/object N1NCB-3. If no packets are shown the sender has not sent any weather packets the latest 10 day(s).
| Time | Temp. | Humidity | Pressure | Rain* | Wind** | Luminosity | Snow |
|---|---|---|---|---|---|---|---|
| 1777679188 | 12.78° C | 51% | 1006 hPa | 0 mm | - | - | - |
| 1777678889 | 13.33° C | 49% | 1006 hPa | 0 mm | - | - | - |
| 1777678589 | 13.89° C | 48% | 1005.7 hPa | 0 mm | - | - | - |
| 1777678288 | 13.89° C | 46% | 1005.7 hPa | 0 mm | - | - | - |
| 1777677988 | 14.44° C | 42% | 1005.7 hPa | 0 mm | - | - | - |
| 1777677689 | 15° C | 42% | 1005.4 hPa | 0 mm | - | - | - |
| 1777677389 | 15.56° C | 41% | 1005.4 hPa | 0 mm | - | - | - |
| 1777677089 | 16.67° C | 39% | 1005.4 hPa | 0 mm | - | - | - |
| 1777676789 | 16.67° C | 38% | 1005 hPa | 0 mm | - | - | - |
| 1777676489 | 16.67° C | 38% | 1005 hPa | 0 mm | - | - | - |
| 1777676189 | 17.78° C | 37% | 1005 hPa | 0 mm | - | - | - |
| 1777675889 | 18.89° C | 36% | 1005 hPa | 0 mm | - | - | - |
| 1777675589 | 19.44° C | 34% | 1005 hPa | 0 mm | - | - | - |
| 1777675289 | 22.22° C | 31% | 1004.7 hPa | 0 mm | - | - | - |
| 1777674989 | 23.33° C | 30% | 1004.7 hPa | 0 mm | - | - | - |
| 1777674689 | 25° C | 30% | 1004.7 hPa | 0 mm | - | - | - |
| 1777674390 | 25.56° C | 31% | 1004.7 hPa | 0 mm | - | - | - |
| 1777674090 | 26.67° C | 33% | 1004.4 hPa | 0 mm | - | - | - |
| 1777673789 | 27.22° C | 30% | 1004.4 hPa | 0 mm | - | - | - |
| 1777673489 | 28.89° C | 33% | 1004.4 hPa | 0 mm | - | - | - |
| 1777673189 | 28.89° C | 32% | 1004 hPa | 0 mm | - | - | - |
| 1777672889 | 26.11° C | 35% | 1004 hPa | 0 mm | - | - | - |
| 1777672589 | 26.11° C | 35% | 1004 hPa | 0 mm | - | - | - |
| 1777672289 | 25.56° C | 36% | 1004 hPa | 0 mm | - | - | - |
| 1777671989 | 23.89° C | 40% | 1004 hPa | 0 mm | - | - | - |
* Rain latest hour (hover to see other rain measurements)
** Current wind speed in m/s (hover to see current wind gust speed)